Location: Bergnershof
(48.9468°N, 10.9431°E)
Time: 15:53:12
(UTC+00:00)

Cosmos 2333 Rocket - Pass Details

Date: 24 June 2021
Orbit: 841 x 861 km, 70.8° (Epoch: 28 July)

Event Time Altitude Azimuth Distance (km) Brightness Sun altitude
Rises 22:59:54 0° 282° (WNW) 3,429 5.6 -17.5°
Reaches altitude 10° 23:04:18 10° 314° (NW) 2,491 5.3 -17.6°
Maximum altitude 23:06:18 12° 335° (NNW) 2,365 5.5 -17.6°
Drops below altitude 10° 23:08:18 10° 355° (N) 2,488 6.0 -17.6°
Sets 23:12:43 0° 27° (NNE) 3,422 6.4 -17.7°
